Location: Unspecified
(0.0000°N, 0.0000°E)
Time: 11:05:36
(UTC+00:00)

Vanguard 1 Rocket - Pass Details

Date: 26 November 2019
Orbit: 650 x 4226 km, 34.3° (Epoch: 14 December)

Event Time Altitude Azimuth Distance (km) Brightness Sun altitude
Rises 10:26:31 0° 288° (WNW) 4,421 10.7 61.3°
Reaches altitude 10° 10:28:59 10° 282° (WNW) 3,766 10.4 61.7°
Maximum altitude 10:39:04 51° 209° (SSW) 2,857 11.0 63.3°
Drops below altitude 10° 10:58:24 10° 138° (SE) 6,808 12.4 65.9°
Sets 11:04:59 0° 133° (SE) 8,194 12.6 66.7°
